EW4271 Weather Reports


time (UTC)temp
C
wind
direction
speed
KPH
gust
KPH
rain 1hr
cm
rain 24hr
cm
rain mn
cm
humidity
%
barometer
mb
20260903235109 26 192 3.2 8.0 0.00 0.00 0.00 32 1023.0
20260903234623 26 148 1.6 9.7 0.00 0.00 0.00 32 1023.0
20260903234115 26 148 3.2 9.7 0.00 0.00 0.00 31 1023.0
20260903233610 26 167 1.6 14.5 0.00 0.00 0.00 32 1023.1
20260903233103 26 30 4.8 14.5 0.00 0.00 0.00 31 1023.1
20260903232617 27 38 1.6 6.4 0.00 0.00 0.00 32 1023.1
20260903232131 27 130 1.6 4.8 0.00 0.00 0.00 31 1023.1
20260903231605 27 130 1.6 8.0 0.00 0.00 0.00 30 1023.2
20260903231117 27 130 1.6 11.3 0.00 0.00 0.00 30 1023.2
20260903230611 27 136 4.8 11.3 0.00 0.00 0.00 29 1023.2
20260903230108 27 224 1.6 4.8 0.00 0.00 0.00 30 1023.2
20260903225643 27 351 1.6 4.8 0.00 0.00 0.00 30 1023.3
20260903225115 27 153 0.0 8.0 0.00 0.00 0.00 30 1023.3
20260903224609 27 153 1.6 8.0 0.00 0.00 0.00 30 1023.3
20260903224103 27 159 0.0 8.0 0.00 0.00 0.00 30 1023.4
20260903223637 27 281 0.0 8.0 0.00 0.00 0.00 30 1023.4
20260903223111 27 314 3.2 9.7 0.00 0.00 0.00 29 1023.4
20260903222604 27 309 3.2 9.7 0.00 0.00 0.00 28 1023.4
20260903222119 28 330 1.6 4.8 0.00 0.00 0.00 28 1023.5
20260903221618 28 153 1.6 8.0 0.00 0.00 0.00 28 1023.5
20260903221110 27 152 4.8 8.0 0.00 0.00 0.00 29 1023.5
20260903220625 27 276 1.6 8.0 0.00 0.00 0.00 31 1023.6
20260903220139 27 52 3.2 8.0 0.00 0.00 0.00 29 1023.6
20260903215632 27 153 3.2 8.0 0.00 0.00 0.00 29 1023.6
20260903215104 27 27 1.6 8.0 0.00 0.00 0.00 32 1023.7
20260903214619 27 60 3.2 6.4 0.00 0.00 0.00 30 1023.7
20260903214113 27 69 1.6 6.4 0.00 0.00 0.00 30 1023.8
20260903213606 27 25 1.6 6.4 0.00 0.00 0.00 30 1023.9
20260903213140 27 244 3.2 6.4 0.00 0.00 0.00 30 1023.9
20260903212615 27 289 3.2 9.7 0.00 0.00 0.00 30 1024.0
20260903212113 26 172 3.2 8.0 0.00 0.00 0.00 31 1024.0
20260903211605 26 303 1.6 6.4 0.00 0.00 0.00 31 1024.1
20260903211140 26 81 1.6 8.0 0.00 0.00 0.00 32 1024.3
20260903210613 26 257 1.6 4.8 0.00 0.00 0.00 33 1024.4
20260903210126 26 132 3.2 4.8 0.00 0.00 0.00 33 1024.5
20260903205620 26 242 1.6 9.7 0.00 0.00 0.00 31 1024.6
20260903205113 26 30 4.8 9.7 0.00 0.00 0.00 30 1024.6
20260903204608 27 37 3.2 11.3 0.00 0.00 0.00 31 1024.5
20260903204102 27 209 3.2 6.4 0.00 0.00 0.00 30 1024.6
20260903203620 26 134 1.6 8.0 0.00 0.00 0.00 32 1024.6
20260903203113 26 157 0.0 6.4 0.00 0.00 0.00 32 1024.6
20260903202607 26 64 3.2 6.4 0.00 0.00 0.00 30 1024.7
20260903202121 27 98 3.2 9.7 0.00 0.00 0.00 29 1024.8
20260903201616 27 153 4.8 12.9 0.00 0.00 0.00 30 1024.8
20260903201110 26 127 4.8 12.9 0.00 0.00 0.00 31 1024.9
20260903200604 27 121 4.8 11.3 0.00 0.00 0.00 29 1024.9
20260903200116 27 142 3.2 4.8 0.00 0.00 0.00 30 1025.0
20260903195614 27 293 1.6 8.0 0.00 0.00 0.00 30 1025.2
20260903195108 27 294 3.2 8.0 0.00 0.00 0.00 30 1025.3
20260903194602 27 355 3.2 11.3 0.00 0.00 0.00 31 1025.3
20260903194136 27 118 4.8 11.3 0.00 0.00 0.00 30 1025.3
20260903193630 26 78 3.2 6.4 0.00 0.00 0.00 31 1025.4
20260903193103 26 90 3.2 9.7 0.00 0.00 0.00 30 1025.5
20260903192617 26 238 4.8 9.7 0.00 0.00 0.00 32 1025.5
20260903192111 25 203 3.2 8.0 0.00 0.00 0.00 32 1025.7
20260903191605 25 329 1.6 8.0 0.00 0.00 0.00 32 1025.7
20260903191104 25 71 3.2 9.7 0.00 0.00 0.00 32 1025.9
20260903190619 25 230 4.8 9.7 0.00 0.00 0.00 32 1026.0
20260903190113 25 205 3.2 6.4 0.00 0.00 0.00 34 1026.0
20260903185626 25 310 1.6 6.4 0.00 0.00 0.00 35 1026.0
20260903185141 25 180 0.0 4.8 0.00 0.00 0.00 35 1026.0
20260903184613 25 297 1.6 4.8 0.00 0.00 0.00 35 1026.2
20260903184107 25 231 0.0 6.4 0.00 0.00 0.00 35 1026.4
20260903183621 25 315 3.2 11.3 0.00 0.00 0.00 34 1026.4
20260903183115 25 158 3.2 8.0 0.00 0.00 0.00 36 1026.4
20260903182612 25 128 3.2 6.4 0.00 0.00 0.00 36 1026.5
20260903182126 25 346 3.2 11.3 0.00 0.00 0.00 36 1026.6
20260903181640 25 160 1.6 11.3 0.00 0.00 0.00 36 1026.6
20260903181112 25 298 3.2 6.4 0.00 0.00 0.00 34 1026.7
20260903180626 25 312 3.2 11.3 0.00 0.00 0.00 34 1026.7
20260903180119 25 174 3.2 12.9 0.00 0.00 0.00 36 1026.7
20260903175613 25 131 4.8 12.9 0.00 0.00 0.00 36 1026.8
20260903175127 25 134 1.6 6.4 0.00 0.00 0.00 38 1026.8
20260903174640 25 189 3.2 6.4 0.00 0.00 0.00 35 1026.8
20260903174113 25 59 3.2 14.5 0.00 0.00 0.00 35 1026.9
20260903173611 25 153 6.4 14.5 0.00 0.00 0.00 35 1027.0
20260903173104 24 139 1.6 8.0 0.00 0.00 0.00 38 1026.9
20260903172639 23 90 3.2 12.9 0.00 0.00 0.00 40 1027.0
20260903172111 23 122 4.8 12.9 0.00 0.00 0.00 38 1027.1
20260903171606 23 38 4.8 8.0 0.00 0.00 0.00 39 1027.1
20260903171140 23 38 3.2 9.7 0.00 0.00 0.00 39 1027.1
20260903170613 23 35 6.4 9.7 0.00 0.00 0.00 39 1027.0
20260903170107 23 116 1.6 8.0 0.00 0.00 0.00 38 1027.0
20260903165642 23 188 3.2 9.7 0.00 0.00 0.00 38 1027.0
20260903165115 24 155 3.2 9.7 0.00 0.00 0.00 37 1027.0
20260903164613 24 142 1.6 6.4 0.00 0.00 0.00 38 1027.0
20260903164107 24 142 3.2 11.3 0.00 0.00 0.00 38 1027.0
20260903163619 24 136 3.2 11.3 0.00 0.00 0.00 37 1027.0
20260903163114 24 145 3.2 12.9 0.00 0.00 0.00 37 1026.9
20260903162607 24 221 6.4 12.9 0.00 0.00 0.00 38 1026.9
20260903162121 23 143 4.8 9.7 0.00 0.00 0.00 38 1026.9
20260903161615 23 31 1.6 9.7 0.00 0.00 0.00 42 1026.9
20260903161109 23 214 6.4 12.9 0.00 0.00 0.00 35 1026.7
20260903160608 23 60 8.0 12.9 0.00 0.00 0.00 39 1026.5
20260903160142 23 28 4.8 12.9 0.00 0.00 0.00 41 1026.5
20260903155614 22 134 1.6 9.7 0.00 0.00 0.00 41 1026.6
20260903155108 23 157 3.2 9.7 0.00 0.00 0.00 38 1026.7
20260903154602 22 148 3.2 9.7 0.00 0.00 0.00 39 1026.7
20260903154116 22 171 3.2 8.0 0.00 0.00 0.00 41 1026.8
20260903153610 22 90 1.6 6.4 0.00 0.00 0.00 46 1026.8
20260903153125 21 225 3.2 6.4 0.00 0.00 0.00 45 1026.8
20260903152618 21 44 0.0 6.4 0.00 0.00 0.00 48 1026.8
20260903152116 20 147 1.6 6.4 0.00 0.00 0.00 49 1026.9
20260903151609 20 147 1.6 8.0 0.00 0.00 0.00 49 1027.0
20260903151124 19 183 1.6 6.4 0.00 0.00 0.00 51 1026.9
20260903150616 19 53 1.6 6.4 0.00 0.00 0.00 51 1026.9
20260903150110 18 49 0.0 0.0 0.00 0.00 0.00 51 1027.0
20260903145604 18 94 0.0 0.0 0.00 0.00 0.00 55 1027.0
20260903145118 18 94 0.0 0.0 0.00 0.00 0.00 54 1027.0
20260903144611 18 94 0.0 0.0 0.00 0.00 0.00 52 1027.1
20260903144109 18 94 0.0 0.0 0.00 0.00 0.00 55 1027.0
20260903143603 18 80 0.0 1.6 0.00 0.00 0.00 55 1027.0
20260903143118 18 80 0.0 3.2 0.00 0.00 0.00 54 1026.9
20260903142632 18 61 1.6 4.8 0.00 0.00 0.00 53 1026.9
20260903142105 18 161 1.6 4.8 0.00 0.00 0.00 53 1026.8
20260903141618 18 161 1.6 3.2 0.00 0.00 0.00 57 1026.8
20260903141132 18 5 0.0 11.3 0.00 0.00 0.00 54 1026.7
20260903140605 17 140 3.2 11.3 0.00 0.00 0.00 53 1026.7
20260903140120 17 195 3.2 8.0 0.00 0.00 0.00 54 1026.6
20260903135618 17 126 3.2 8.0 0.00 0.00 0.00 58 1026.6
20260903135112 17 95 1.6 6.4 0.00 0.00 0.00 62 1026.5
20260903134627 16 96 0.0 0.0 0.00 0.00 0.00 61 1026.5
20260903134119 16 41 0.0 0.0 0.00 0.00 0.00 68 1026.6
20260903133613 16 41 0.0 0.0 0.00 0.00 0.00 66 1026.5
20260903133108 16 41 0.0 0.0 0.00 0.00 0.00 67 1026.5
20260903132642 15 41 0.0 0.0 0.00 0.00 0.00 69 1026.4
20260903132137 15 47 0.0 0.0 0.00 0.00 0.00 71 1026.4
20260903131609 14 43 0.0 0.0 0.00 0.00 0.00 72 1026.2
20260903131121 13 43 0.0 3.2 0.00 0.00 0.00 71 1026.2
20260903130619 13 43 1.6 3.2 0.00 0.00 0.00 71 1026.2
20260903130114 13 43 0.0 6.4 0.00 0.00 0.00 71 1026.1
20260903125628 13 320 0.0 0.0 0.00 0.00 0.00 71 1026.1
20260903125103 13 286 0.0 0.0 0.00 0.00 0.00 70 1026.0
20260903124617 13 261 0.0 0.0 0.00 0.00 0.00 68 1026.0
20260903124111 13 274 0.0 0.0 0.00 0.00 0.00 69 1026.0
20260903123606 13 274 0.0 0.0 0.00 0.00 0.00 69 1026.0
20260903123121 13 271 0.0 0.0 0.00 0.00 0.00 70 1026.0
20260903122614 13 271 0.0 0.0 0.00 0.00 0.00 68 1025.9
20260903122111 13 340 0.0 0.0 0.00 0.00 0.00 69 1025.9
20260903121605 13 340 0.0 0.0 0.00 0.00 0.00 70 1025.9
20260903121119 13 340 0.0 0.0 0.00 0.00 0.00 69 1025.7
20260903120634 13 340 0.0 0.0 0.00 0.00 0.00 69 1025.9
20260903120128 13 340 0.0 0.0 0.00 0.00 0.00 69 1025.8
20260903115621 13 257 0.0 0.0 0.00 0.00 0.00 69 1025.7
20260903115115 13 257 0.0 0.0 0.00 0.00 0.00 70 1025.7
20260903114610 13 257 0.0 0.0 0.00 0.00 0.00 69 1025.8
20260903114108 13 257 0.0 3.2 0.00 0.00 0.00 68 1025.8
20260903113602 13 257 1.6 3.2 0.00 0.00 0.00 68 1025.7
20260903113116 13 293 0.0 0.0 0.00 0.00 0.00 70 1025.7
20260903112610 13 271 0.0 0.0 0.00 0.00 0.00 67 1025.7
20260903112125 13 271 0.0 0.0 0.00 0.00 0.00 70 1025.8
20260903111617 13 271 0.0 0.0 0.00 0.00 0.00 68 1025.7
20260903111113 13 271 0.0 0.0 0.00 0.00 0.00 68 1025.7
20260903110606 13 271 0.0 0.0 0.00 0.00 0.00 69 1025.6
20260903110105 13 271 0.0 0.0 0.00 0.00 0.00 69 1025.6
20260903105619 13 271 0.0 0.0 0.00 0.00 0.00 67 1025.6
20260903105113 13 271 0.0 0.0 0.00 0.00 0.00 67 1025.5
20260903104607 13 271 0.0 0.0 0.00 0.00 0.00 68 1025.6
20260903104101 13 271 0.0 0.0 0.00 0.00 0.00 69 1025.6
20260903103617 13 271 0.0 0.0 0.00 0.00 0.00 69 1025.5
20260903103110 13 271 0.0 0.0 0.00 0.00 0.00 69 1025.5
20260903102605 13 271 0.0 0.0 0.00 0.00 0.00 67 1025.5
20260903102103 13 271 0.0 0.0 0.00 0.00 0.00 67 1025.4
20260903101616 13 271 0.0 0.0 0.00 0.00 0.00 68 1025.4
20260903101110 13 271 0.0 0.0 0.00 0.00 0.00 67 1025.3
20260903100604 13 271 0.0 0.0 0.00 0.00 0.00 66 1025.3
20260903100118 13 271 0.0 0.0 0.00 0.00 0.00 65 1025.3
20260903095613 13 271 0.0 0.0 0.00 0.00 0.00 65 1025.3
20260903095106 13 271 0.0 0.0 0.00 0.00 0.00 64 1025.2
20260903094603 13 271 0.0 0.0 0.00 0.00 0.00 62 1025.3
20260903094117 13 271 0.0 0.0 0.00 0.00 0.00 63 1025.4
20260903093610 13 271 0.0 0.0 0.00 0.00 0.00 61 1025.3
20260903093103 13 271 0.0 0.0 0.00 0.00 0.00 61 1025.4
20260903092618 13 271 0.0 0.0 0.00 0.00 0.00 61 1025.3
20260903092111 13 271 0.0 0.0 0.00 0.00 0.00 58 1025.4
20260903091605 13 271 0.0 0.0 0.00 0.00 0.00 58 1025.4
20260903091119 13 271 0.0 0.0 0.00 0.00 0.00 62 1025.4
20260903090614 14 271 0.0 1.6 0.00 0.00 0.00 58 1025.5
20260903090110 14 271 0.0 3.2 0.00 0.00 0.00 59 1025.5
20260903085604 14 271 1.6 3.2 0.00 0.00 0.00 58 1025.5
20260903085118 14 271 0.0 3.2 0.00 0.00 0.00 58 1025.5
20260903084612 14 271 1.6 3.2 0.00 0.00 0.00 58 1025.5
20260903084126 14 271 0.0 0.0 0.00 0.00 0.00 58 1025.5
20260903083619 15 271 0.0 0.0 0.00 0.00 0.00 59 1025.5
20260903083113 15 260 0.0 4.8 0.00 0.00 0.00 55 1025.5
20260903082606 15 260 1.6 4.8 0.00 0.00 0.00 56 1025.5
20260903082105 15 47 1.6 4.8 0.00 0.00 0.00 57 1025.5
20260903081619 15 305 0.0 0.0 0.00 0.00 0.00 53 1025.6
20260903081113 15 305 0.0 0.0 0.00 0.00 0.00 54 1025.6
20260903080606 15 305 0.0 0.0 0.00 0.00 0.00 56 1025.6
20260903080141 15 305 0.0 0.0 0.00 0.00 0.00 54 1025.6
20260903075614 15 305 0.0 0.0 0.00 0.00 0.00 52 1025.7
20260903075107 15 305 0.0 0.0 0.00 0.00 0.00 55 1025.7
20260903074622 15 305 0.0 4.8 0.00 0.00 0.00 53 1025.7
20260903074115 15 20 0.0 4.8 0.00 0.00 0.00 53 1025.7
20260903073614 15 288 0.0 0.0 0.00 0.00 0.00 53 1025.7
20260903073127 15 288 0.0 0.0 0.00 0.00 0.00 53 1025.7
20260903072620 16 288 0.0 0.0 0.00 0.00 0.00 51 1025.6
20260903072114 16 288 0.0 0.0 0.00 0.00 0.00 52 1025.7
20260903071628 16 288 0.0 0.0 0.00 0.00 0.00 51 1025.7
20260903071101 16 288 0.0 0.0 0.00 0.00 0.00 48 1025.6
20260903070636 17 288 0.0 0.0 0.00 0.00 0.00 49 1025.5
20260903070109 17 288 0.0 0.0 0.00 0.00 0.00 47 1025.5
20260903065603 18 288 0.0 0.0 0.00 0.00 0.00 45 1025.5
20260903065117 18 288 0.0 1.6 0.00 0.00 0.00 40 1025.6
20260903064634 18 288 0.0 3.2 0.00 0.00 0.00 42 1025.5
20260903064107 18 288 1.6 4.8 0.00 0.00 0.00 39 1025.6
20260903063620 19 148 0.0 4.8 0.00 0.00 0.00 38 1025.5
20260903063114 19 148 0.0 9.7 0.00 0.00 0.00 38 1025.5
20260903062608 19 156 6.4 9.7 0.00 0.00 0.00 36 1025.5
20260903062102 20 147 3.2 6.4 0.00 0.00 0.00 37 1025.4
20260903061616 20 82 0.0 0.0 0.00 0.00 0.00 37 1025.3
20260903061111 20 119 0.0 0.0 0.00 0.00 0.00 37 1025.3
20260903060608 20 119 0.0 1.6 0.00 0.00 0.00 36 1025.3
20260903055635 20 233 1.6 4.8 0.00 0.00 0.00 37 1025.2
20260903055129 20 278 1.6 3.2 0.00 0.00 0.00 38 1025.2
20260903054602 20 99 1.6 8.0 0.00 0.00 0.00 37 1025.2
20260903054115 20 74 3.2 8.0 0.00 0.00 0.00 37 1025.2
20260903053629 20 24 1.6 4.8 0.00 0.00 0.00 37 1025.2
20260903053102 20 24 1.6 4.8 0.00 0.00 0.00 34 1025.2
20260903052616 20 56 0.0 4.8 0.00 0.00 0.00 35 1025.3
20260903052114 20 31 1.6 4.8 0.00 0.00 0.00 35 1025.3
20260903051628 20 11 1.6 4.8 0.00 0.00 0.00 34 1025.3
20260903051102 20 342 1.6 6.4 0.00 0.00 0.00 35 1025.3
20260903050616 20 22 3.2 6.4 0.00 0.00 0.00 36 1025.3
20260903050108 20 27 1.6 3.2 0.00 0.00 0.00 34 1025.4
20260903045602 20 28 1.6 3.2 0.00 0.00 0.00 36 1025.4
20260903045116 20 291 1.6 3.2 0.00 0.00 0.00 34 1025.4
20260903044610 20 292 0.0 4.8 0.00 0.00 0.00 36 1025.4
20260903044108 20 13 3.2 4.8 0.00 0.00 0.00 34 1025.4
20260903043603 20 34 1.6 3.2 0.00 0.00 0.00 35 1025.5
20260903043118 20 34 0.0 4.8 0.00 0.00 0.00 36 1025.5
20260903042611 20 34 3.2 4.8 0.00 0.00 0.00 36 1025.5
20260903042105 20 38 0.0 8.0 0.00 0.00 0.00 36 1025.5
20260903041639 20 38 1.6 8.0 0.00 0.00 0.00 35 1025.4
20260903041111 20 42 1.6 4.8 0.00 0.00 0.00 37 1025.5
20260903040605 20 315 1.6 4.8 0.00 0.00 0.00 37 1025.6
20260903040139 20 286 1.6 4.8 0.00 0.00 0.00 39 1025.5
20260903035632 19 286 1.6 4.8 0.00 0.00 0.00 38 1025.5
20260903035109 19 296 1.6 3.2 0.00 0.00 0.00 37 1025.6
20260903034602 18 23 1.6 4.8 0.00 0.00 0.00 39 1025.5
20260903034116 18 26 1.6 4.8 0.00 0.00 0.00 40 1025.4
20260903033609 18 298 1.6 4.8 0.00 0.00 0.00 40 1025.5
20260903033104 18 236 1.6 4.8 0.00 0.00 0.00 41 1025.5
20260903032617 18 236 1.6 3.2 0.00 0.00 0.00 43 1025.5
20260903032111 18 236 0.0 0.0 0.00 0.00 0.00 41 1025.5
20260903031605 18 236 0.0 0.0 0.00 0.00 0.00 42 1025.4
20260903031103 18 236 0.0 0.0 0.00 0.00 0.00 43 1025.5
20260903030618 18 236 0.0 0.0 0.00 0.00 0.00 42 1025.4
20260903030110 18 236 0.0 0.0 0.00 0.00 0.00 42 1025.4
20260903025605 18 236 0.0 0.0 0.00 0.00 0.00 47 1025.3
20260903025118 18 236 0.0 0.0 0.00 0.00 0.00 46 1025.2
20260903024612 18 236 0.0 0.0 0.00 0.00 0.00 45 1025.2
20260903024105 18 236 0.0 0.0 0.00 0.00 0.00 44 1025.1
20260903023603 18 236 0.0 0.0 0.00 0.00 0.00 39 1025.0
20260903023118 18 236 0.0 0.0 0.00 0.00 0.00 39 1025.0
20260903022611 18 236 0.0 0.0 0.00 0.00 0.00 41 1024.9
20260903022106 19 236 0.0 0.0 0.00 0.00 0.00 39 1024.8
20260903021640 19 236 0.0 0.0 0.00 0.00 0.00 39 1024.8
20260903021135 19 236 0.0 0.0 0.00 0.00 0.00 38 1024.8
20260903020609 19 236 0.0 0.0 0.00 0.00 0.00 39 1024.8
20260903020104 20 236 0.0 0.0 0.00 0.00 0.00 38 1024.7
20260903015618 20 236 0.0 0.0 0.00 0.00 0.00 38 1024.7
20260903015132 20 236 0.0 0.0 0.00 0.00 0.00 36 1024.6
20260903014609 21 236 0.0 0.0 0.00 0.00 0.00 36 1024.6
20260903014123 21 236 0.0 0.0 0.00 0.00 0.00 35 1024.6
20260903013635 21 236 0.0 0.0 0.00 0.00 0.00 36 1024.5
20260903013108 22 236 0.0 0.0 0.00 0.00 0.00 36 1024.5
20260903012602 22 236 0.0 0.0 0.00 0.00 0.00 33 1024.5
20260903012115 22 236 0.0 0.0 0.00 0.00 0.00 35 1024.6
20260903011609 23 236 0.0 0.0 0.00 0.00 0.00 35 1024.5
20260903011104 23 236 0.0 0.0 0.00 0.00 0.00 31 1024.4
20260903010618 23 236 0.0 0.0 0.00 0.00 0.00 30 1024.5
20260903010116 24 236 0.0 0.0 0.00 0.00 0.00 30 1024.6
20260903005610 24 236 0.0 0.0 0.00 0.00 0.00 29 1024.5
20260903005123 24 236 0.0 4.8 0.00 0.00 0.00 27 1024.5
20260903004616 25 236 1.6 4.8 0.00 0.00 0.00 27 1024.5
20260903004110 25 44 0.0 1.6 0.00 0.00 0.00 27 1024.5
20260903003605 25 44 0.0 3.2 0.00 0.00 0.00 27 1024.6
20260903003138 25 107 1.6 3.2 0.00 0.00 0.00 25 1024.5
20260903002611 26 219 0.0 3.2 0.00 0.00 0.00 26 1024.6
20260903002104 26 219 1.6 8.0 0.00 0.00 0.00 23 1024.5
20260903001603 26 51 1.6 8.0 0.00 0.00 0.00 23 1024.6
20260903001116 27 325 1.6 8.0 0.00 0.00 0.00 23 1024.5
20260903000610 27 355 1.6 8.0 0.00 0.00 0.00 23 1024.6
20260902235618 26 193 1.6 4.8 0.00 0.00 0.00 23 1024.6